Weather History for Marion, OH

Change the Weather History Date:

Sunday, February 17, 2013

  Actual Average (KDLZ) Record (KDLZ)
Temperature  
Mean Temperature 16 °F -  
Max Temperature 21 °F 37 °F 61 °F (1976)
Min Temperature 10 °F 18 °F -11 °F (1979)
Degree Days  
Heating Degree Days 50    
Moisture  
Dew Point 8 °F    
Average Humidity 72    
Maximum Humidity 85    
Minimum Humidity 53    
Precipitation  
Precipitation 0.00 in - - ()
Sea Level Pressure  
Sea Level Pressure 30.18 in    
Wind  
Wind Speed 10 mph (WNW)    
Max Wind Speed 14 mph    
Max Gust Speed 20 mph    
Visibility 9 miles    
Events Snow    
Averages and records for this station are not official NWS values.
T = Trace of Precipitation, MM = Missing Value Source: NWS Daily Summary

Daily Weather History Graph

Daily Weather History Graph

Search for Another Location

Airport:

Trip Planner

Search our weather history database for the weather conditions in past years. The results will help you decide how hot, cold, wet, or windy it might be!

Date:

Astronomy

Feb. 17, 2013 Rise Set
Actual Time 7:23 AM EST 6:09 PM EST
Civil Twilight 6:55 AM EST 6:37 PM EST
Nautical Twilight 6:23 AM EST 7:09 PM EST
Astronomical Twilight 5:51 AM EST 7:41 PM EST
Moon 11:13 AM EST (2/17) 1:06 AM EST (2/17)
Length of Visible Light 11h 42m
Length of Day
10h 46m
Waxing Crescent, 49% of the Moon is Illuminated
Feb 17
Waxing Crescent
Feb 17
First Quarter
Feb 25
Full
Mar 4
Last Quarter
Mar 11
New

Hourly Weather History & Observations

Time (EST) Temp. Windchill Dew Point Humidity Pressure Visibility Wind Dir Wind Speed Gust Speed Precip Events Conditions
12:53 AM 15.1 °F 1.1 °F 9.0 °F 77% 30.09 in 9.0 mi NW 12.7 mph 19.6 mph 0.00 in   Overcast
1:53 AM 15.1 °F 1.8 °F 9.0 °F 77% 30.09 in 9.0 mi NW 11.5 mph - 0.00 in   Overcast
2:27 AM 12.2 °F -0.2 °F 6.8 °F 79% 30.05 in 10.0 mi WNW 9.2 mph - N/A   Overcast
2:53 AM 12.9 °F -0.9 °F 7.0 °F 77% 30.10 in 10.0 mi WNW 11.5 mph - N/A   Overcast
3:35 AM 12.2 °F -0.2 °F 6.8 °F 79% 30.05 in 10.0 mi WNW 9.2 mph - N/A   Mostly Cloudy
3:53 AM 12.0 °F -0.4 °F 6.1 °F 77% 30.11 in 10.0 mi WNW 9.2 mph - N/A   Scattered Clouds
4:53 AM 10.9 °F 1.4 °F 6.1 °F 81% 30.12 in 10.0 mi WNW 5.8 mph - N/A   Partly Cloudy
5:04 AM 10.4 °F -0.4 °F 6.8 °F 85% 30.07 in 10.0 mi WNW 6.9 mph - N/A   Mostly Cloudy
5:28 AM 12.2 °F -0.2 °F 8.6 °F 85% 30.07 in 10.0 mi WNW 9.2 mph - N/A   Overcast
5:53 AM 12.9 °F 0.7 °F 8.1 °F 81% 30.14 in 10.0 mi WNW 9.2 mph - N/A   Overcast
6:53 AM 12.9 °F 0.7 °F 9.0 °F 84% 30.16 in 7.0 mi WNW 9.2 mph - N/A   Overcast
8:53 AM 14.0 °F -0.8 °F 10.0 °F 84% 30.20 in 6.0 mi NW 13.8 mph - N/A   Overcast
9:53 AM 15.1 °F 4.2 °F 10.0 °F 80% 30.22 in 5.0 mi NW 8.1 mph - N/A   Haze
10:41 AM 15.8 °F 5.1 °F 10.4 °F 79% 30.17 in 10.0 mi NNW 8.1 mph - N/A   Mostly Cloudy
10:53 AM 18.0 °F 6.9 °F 10.0 °F 71% 30.23 in 10.0 mi NNW 9.2 mph - N/A   Overcast
11:53 AM 18.0 °F 6.9 °F 9.0 °F 68% 30.25 in 7.0 mi WNW 9.2 mph - 0.00 in Snow Light Snow
12:53 PM 19.0 °F 6.8 °F 10.0 °F 68% 30.24 in 10.0 mi West 11.5 mph - 0.00 in   Overcast
1:00 PM 19.4 °F 6.6 °F 10.4 °F 68% 30.18 in 10.0 mi WNW 12.7 mph - N/A   Overcast
1:24 PM 19.4 °F 6.6 °F 8.6 °F 63% 30.17 in 10.0 mi West 12.7 mph - N/A   Overcast
1:33 PM 19.4 °F 7.9 °F 8.6 °F 63% 30.17 in 10.0 mi WNW 10.4 mph - N/A   Overcast
1:53 PM 19.9 °F 10.1 °F 9.0 °F 62% 30.23 in 10.0 mi WNW 8.1 mph - N/A   Overcast
2:53 PM 19.9 °F 8.6 °F 8.1 °F 60% 30.22 in 10.0 mi WNW 10.4 mph - N/A   Overcast
3:53 PM 21.0 °F 11.4 °F 8.1 °F 57% 30.24 in 10.0 mi NW 8.1 mph - N/A   Overcast
4:53 PM 21.9 °F 10.4 °F 7.0 °F 53% 30.24 in 10.0 mi WNW 11.5 mph - N/A   Overcast
5:53 PM 21.9 °F 13.4 °F 7.0 °F 53% 30.24 in 10.0 mi WNW 6.9 mph - N/A   Overcast
6:53 PM 19.0 °F 13.9 °F 8.1 °F 62% 30.26 in 10.0 mi SW 3.5 mph - N/A   Mostly Cloudy
8:53 PM 16.0 °F 8.8 °F 8.1 °F 71% 30.26 in 10.0 mi South 4.6 mph - N/A   Clear
9:53 PM 15.1 °F 7.7 °F 8.1 °F 74% 30.27 in 10.0 mi South 4.6 mph - N/A   Clear
10:53 PM 14.0 °F 3.9 °F 8.1 °F 77% 30.26 in 10.0 mi South 6.9 mph - N/A   Clear